K6OUA-11 Weather Reports


Display with metric or nautical units.
time (UTC)temp
F
wind
direction
speed
MPH
gust
MPH
rain 1hr
in
rain 24hr
in
rain mn
in
humidity
%
barometer
mb
20170921063821 60 0 0.0 2.0 0.00 0.00 0.00 89 1005.2
20170921063624 60 0 0.0 2.0 0.00 0.00 0.00 89 1005.2
20170921063424 60 42 1.0 2.0 0.00 0.00 0.00 89 1005.3
20170921063323 60 42 1.0 2.0 0.00 0.00 0.00 89 1005.3
20170921063204 60 15 1.0 2.0 0.00 0.00 0.00 89 1005.1
20170921063022 60 15 1.0 2.0 0.00 0.00 0.00 89 1005.1
20170921062828 60 9 1.0 2.0 0.00 0.00 0.00 89 1005.3
20170921062721 60 9 1.0 2.0 0.00 0.00 0.00 89 1005.3
20170921062618 60 0 0.0 2.0 0.00 0.00 0.00 89 1005.3
20170921062420 60 0 0.0 2.0 0.00 0.00 0.00 89 1005.3
20170921062232 60 31 1.0 2.0 0.00 0.00 0.00 89 1005.3
20170921062118 60 31 1.0 2.0 0.00 0.00 0.00 89 1005.3
20170921061915 60 32 1.0 1.0 0.00 0.00 0.00 89 1005.3
20170921061817 60 32 1.0 1.0 0.00 0.00 0.00 89 1005.3
20170921061628 60 4 1.0 1.0 0.00 0.00 0.00 89 1005.3
20170921061515 60 4 1.0 1.0 0.00 0.00 0.00 89 1005.3
20170921061104 60 31 1.0 2.0 0.00 0.00 0.00 89 1005.3
20170921060914 60 31 1.0 2.0 0.00 0.00 0.00 89 1005.3
20170921060822 60 270 0.0 1.0 0.00 0.00 0.00 89 1005.5
20170921060613 60 270 0.0 1.0 0.00 0.00 0.00 89 1005.5
20170921060312 60 20 1.0 1.0 0.00 0.00 0.00 88 1005.5
20170921060130 60 45 1.0 2.0 0.00 0.00 0.00 89 1005.4
20170921060011 60 45 1.0 2.0 0.00 0.00 0.00 89 1005.4
20170921055839 60 65 1.0 2.0 0.00 0.00 0.00 89 1005.5
20170921055708 60 65 1.0 2.0 0.00 0.00 0.00 89 1005.5
20170921055515 60 337 0.0 1.0 0.00 0.00 0.00 88 1005.4
20170921055409 60 337 0.0 1.0 0.00 0.00 0.00 88 1005.4
20170921055108 60 353 0.0 1.0 0.00 0.00 0.00 88 1005.5
20170921054917 60 45 0.0 0.0 0.00 0.00 0.00 88 1005.4
20170921054805 60 45 0.0 0.0 0.00 0.00 0.00 88 1005.4
20170921054615 60 45 0.0 1.0 0.00 0.00 0.00 88 1005.4
20170921054505 60 45 0.0 1.0 0.00 0.00 0.00 88 1005.4
20170921054206 59 45 0.0 2.0 0.00 0.00 0.00 89 1005.5
20170921053903 59 137 1.0 2.0 0.00 0.00 0.00 89 1005.5
20170921053702 59 27 1.0 2.0 0.00 0.00 0.00 88 1005.6
20170921053602 59 27 1.0 2.0 0.00 0.00 0.00 88 1005.6
20170921053438 59 49 1.0 2.0 0.00 0.00 0.00 89 1005.6
20170921053301 59 49 1.0 2.0 0.00 0.00 0.00 89 1005.6
20170921053132 59 45 1.0 2.0 0.00 0.00 0.00 89 1005.5
20170921053001 59 45 1.0 2.0 0.00 0.00 0.00 89 1005.5
20170921052824 59 38 1.0 1.0 0.00 0.00 0.00 88 1005.5
20170921052701 59 38 1.0 1.0 0.00 0.00 0.00 88 1005.5
20170921052511 59 352 1.0 1.0 0.00 0.00 0.00 88 1005.5
20170921052357 59 352 1.0 1.0 0.00 0.00 0.00 88 1005.5
20170921052144 59 61 1.0 1.0 0.00 0.00 0.00 88 1005.5
20170921052056 59 61 1.0 1.0 0.00 0.00 0.00 88 1005.5
20170921051900 59 0 0.0 1.0 0.00 0.00 0.00 88 1005.6
20170921051756 59 0 0.0 1.0 0.00 0.00 0.00 88 1005.6
20170921051343 59 90 0.0 0.0 0.00 0.00 0.00 87 1005.6
20170921051153 59 90 0.0 0.0 0.00 0.00 0.00 87 1005.6
20170921051045 59 90 0.0 0.0 0.00 0.00 0.00 87 1005.6
20170921050852 59 90 0.0 0.0 0.00 0.00 0.00 87 1005.6
20170921050710 59 90 0.0 0.0 0.00 0.00 0.00 87 1005.5
20170921050551 59 90 0.0 0.0 0.00 0.00 0.00 87 1005.5
20170921050417 59 90 0.0 0.0 0.00 0.00 0.00 87 1005.7
20170921050249 59 90 0.0 0.0 0.00 0.00 0.00 87 1005.7
20170921050111 59 90 0.0 2.0 0.00 0.00 0.00 87 1005.6
20170921045949 59 90 0.0 2.0 0.00 0.00 0.00 87 1005.6
20170921045648 59 45 0.0 0.0 0.00 0.00 0.00 86 1005.6
20170921045454 59 45 0.0 0.0 0.00 0.00 0.00 86 1005.7
20170921045346 59 45 0.0 0.0 0.00 0.00 0.00 86 1005.7
20170921045157 59 45 0.0 0.0 0.00 0.00 0.00 86 1005.7
20170921045045 59 45 0.0 0.0 0.00 0.00 0.00 86 1005.7
20170921044744 60 270 0.0 0.0 0.00 0.00 0.00 86 1005.8
20170921044443 60 225 0.0 0.0 0.00 0.00 0.00 86 1005.7
20170921044307 60 180 0.0 0.0 0.00 0.00 0.00 86 1005.7
20170921044141 60 180 0.0 0.0 0.00 0.00 0.00 86 1005.7
20170921043928 60 180 0.0 0.0 0.00 0.00 0.00 85 1005.8
20170921043841 60 180 0.0 0.0 0.00 0.00 0.00 85 1005.8
20170921043719 60 180 0.0 0.0 0.00 0.00 0.00 85 1005.8
20170921043539 60 180 0.0 0.0 0.00 0.00 0.00 85 1005.8
20170921042937 60 180 0.0 0.0 0.00 0.00 0.00 85 1005.9
20170921042812 60 225 0.0 0.0 0.00 0.00 0.00 84 1005.9
20170921042636 60 225 0.0 0.0 0.00 0.00 0.00 84 1005.9
20170921042527 60 225 0.0 0.0 0.00 0.00 0.00 84 1005.9
20170921042335 60 225 0.0 0.0 0.00 0.00 0.00 84 1005.9
20170921042135 60 225 0.0 0.0 0.00 0.00 0.00 84 1005.9
20170921042035 60 225 0.0 0.0 0.00 0.00 0.00 84 1005.9
20170921041925 60 225 0.0 0.0 0.00 0.00 0.00 84 1005.9
20170921041733 60 225 0.0 0.0 0.00 0.00 0.00 84 1005.9
20170921041607 60 225 0.0 0.0 0.00 0.00 0.00 84 1005.8
20170921041431 60 225 0.0 0.0 0.00 0.00 0.00 84 1005.8
20170921041259 60 225 0.0 0.0 0.00 0.00 0.00 83 1005.7
20170921041130 60 225 0.0 0.0 0.00 0.00 0.00 83 1005.7
20170921040912 60 225 0.0 0.0 0.00 0.00 0.00 83 1005.7
20170921040828 60 225 0.0 0.0 0.00 0.00 0.00 83 1005.7
20170921040636 60 225 0.0 0.0 0.00 0.00 0.00 83 1005.7
20170921040529 60 225 0.0 0.0 0.00 0.00 0.00 83 1005.7
20170921040404 60 225 0.0 1.0 0.00 0.00 0.00 83 1005.7
20170921040227 60 225 0.0 1.0 0.00 0.00 0.00 83 1005.7
20170921040048 61 225 1.0 1.0 0.00 0.00 0.00 83 1005.8
20170921035927 61 225 1.0 1.0 0.00 0.00 0.00 83 1005.8
20170921035728 61 225 0.0 0.0 0.00 0.00 0.00 83 1005.6
20170921035625 61 225 0.0 0.0 0.00 0.00 0.00 83 1005.6
20170921035523 61 225 0.0 0.0 0.00 0.00 0.00 82 1005.7
20170921035324 61 225 0.0 0.0 0.00 0.00 0.00 82 1005.7
20170921034822 61 225 0.0 0.0 0.00 0.00 0.00 82 1005.4
20170921034722 61 225 0.0 0.0 0.00 0.00 0.00 82 1005.4
20170921034540 61 225 0.0 0.0 0.00 0.00 0.00 82 1005.5
20170921034420 61 225 0.0 0.0 0.00 0.00 0.00 82 1005.5
20170921034216 62 225 0.0 0.0 0.00 0.00 0.00 82 1005.6
20170921034120 62 225 0.0 0.0 0.00 0.00 0.00 82 1005.6
20170921033616 62 225 0.0 0.0 0.00 0.00 0.00 82 1005.5
20170921033516 62 225 0.0 0.0 0.00 0.00 0.00 82 1005.5
20170921033402 62 225 0.0 0.0 0.00 0.00 0.00 82 1005.6
20170921033217 62 225 0.0 0.0 0.00 0.00 0.00 82 1005.6
20170921032915 62 225 0.0 2.0 0.00 0.00 0.00 81 1005.6
20170921032615 62 225 0.0 0.0 0.00 0.00 0.00 81 1005.6
20170921032443 63 225 0.0 1.0 0.00 0.00 0.00 81 1005.6
20170921032313 63 225 0.0 1.0 0.00 0.00 0.00 81 1005.6
20170921031823 63 225 0.0 1.0 0.00 0.00 0.00 81 1005.3
20170921031710 63 225 0.0 1.0 0.00 0.00 0.00 81 1005.3
20170921031410 63 231 0.0 0.0 0.00 0.00 0.00 80 1005.3
20170921030923 63 270 0.0 0.0 0.00 0.00 0.00 80 1005.5
20170921030802 63 270 0.0 0.0 0.00 0.00 0.00 80 1005.5
20170921030502 63 225 0.0 1.0 0.00 0.00 0.00 80 1005.3
20170921030201 63 225 1.0 1.0 0.00 0.00 0.00 79 1005.4
20170921030023 63 202 0.0 1.0 0.00 0.00 0.00 79 1005.2
20170921025859 63 202 0.0 1.0 0.00 0.00 0.00 79 1005.2
20170921025717 64 238 0.0 1.0 0.00 0.00 0.00 79 1005.3
20170921025558 64 238 0.0 1.0 0.00 0.00 0.00 79 1005.3
20170921025257 64 225 0.0 1.0 0.00 0.00 0.00 79 1005.2
20170921024955 64 225 0.0 1.0 0.00 0.00 0.00 79 1005.1
20170921024655 64 261 1.0 2.0 0.00 0.00 0.00 78 1005.1
20170921024520 64 245 1.0 1.0 0.00 0.00 0.00 78 1004.9
20170921024354 64 245 1.0 1.0 0.00 0.00 0.00 78 1004.9
20170921024051 64 193 0.0 3.0 0.00 0.00 0.00 78 1005.0
20170921023908 64 238 2.0 3.0 0.00 0.00 0.00 77 1005.1
20170921023752 64 238 2.0 3.0 0.00 0.00 0.00 77 1005.1
20170921023450 64 211 0.0 3.0 0.00 0.00 0.00 77 1004.9
20170921023312 65 252 2.0 2.0 0.00 0.00 0.00 76 1004.9
20170921023149 65 252 2.0 2.0 0.00 0.00 0.00 76 1004.9
20170921023008 65 238 1.0 3.0 0.00 0.00 0.00 76 1004.9
20170921022848 65 238 1.0 3.0 0.00 0.00 0.00 76 1004.9
20170921022717 65 210 2.0 3.0 0.00 0.00 0.00 75 1004.8
20170921022548 65 210 2.0 3.0 0.00 0.00 0.00 75 1004.8
20170921022440 65 315 1.0 1.0 0.00 0.00 0.00 74 1004.8
20170921022246 65 315 1.0 1.0 0.00 0.00 0.00 74 1004.8
20170921021944 65 236 1.0 1.0 0.00 0.00 0.00 74 1004.8
20170921021517 66 229 0.0 2.0 0.00 0.00 0.00 72 1004.8
20170921021343 66 229 0.0 2.0 0.00 0.00 0.00 72 1004.8
20170921021225 66 229 0.0 2.0 0.00 0.00 0.00 72 1005.0
20170921021040 66 229 0.0 2.0 0.00 0.00 0.00 72 1005.0
20170921020740 66 182 1.0 1.0 0.00 0.00 0.00 71 1004.8
20170921020545 67 225 0.0 1.0 0.00 0.00 0.00 71 1004.9
20170921020438 67 225 0.0 1.0 0.00 0.00 0.00 71 1004.9
20170921020138 67 245 0.0 1.0 0.00 0.00 0.00 70 1004.7
20170921015942 67 234 0.0 4.0 0.00 0.00 0.00 70 1004.8
20170921015838 67 234 0.0 4.0 0.00 0.00 0.00 70 1004.8
20170921015659 67 261 3.0 5.0 0.00 0.00 0.00 69 1004.8
20170921015536 67 261 3.0 5.0 0.00 0.00 0.00 69 1004.8
20170921015350 68 238 0.0 4.0 0.00 0.00 0.00 69 1004.9
20170921015234 68 238 0.0 4.0 0.00 0.00 0.00 69 1004.9
20170921015116 68 236 1.0 4.0 0.00 0.00 0.00 69 1005.0
20170921014934 68 236 1.0 4.0 0.00 0.00 0.00 69 1005.0
20170921014807 68 250 2.0 3.0 0.00 0.00 0.00 68 1005.0
20170921014631 68 250 2.0 3.0 0.00 0.00 0.00 68 1005.0
20170921014525 69 231 1.0 3.0 0.00 0.00 0.00 68 1005.0
20170921014332 69 231 1.0 3.0 0.00 0.00 0.00 68 1005.0
20170921014142 69 204 1.0 3.0 0.00 0.00 0.00 68 1004.9
20170921014030 69 204 1.0 3.0 0.00 0.00 0.00 68 1004.9
20170921013947 69 240 3.0 4.0 0.00 0.00 0.00 67 1005.0
20170921013729 69 240 3.0 4.0 0.00 0.00 0.00 67 1005.0
20170921013557 70 252 4.0 4.0 0.00 0.00 0.00 66 1004.8
20170921013427 70 252 4.0 4.0 0.00 0.00 0.00 66 1004.8
20170921013250 70 236 3.0 4.0 0.00 0.00 0.00 65 1004.8
20170921013126 70 236 3.0 4.0 0.00 0.00 0.00 65 1004.8
20170921012825 70 252 2.0 6.0 0.00 0.00 0.00 65 1004.9
20170921012525 71 267 2.0 5.0 0.00 0.00 0.00 63 1004.8
20170921012224 71 243 1.0 5.0 0.00 0.00 0.00 64 1004.8
20170921011923 72 200 0.0 3.0 0.00 0.00 0.00 63 1004.8
20170921011731 72 220 1.0 4.0 0.00 0.00 0.00 63 1004.8
20170921011620 72 220 1.0 4.0 0.00 0.00 0.00 63 1004.8
20170921011514 72 237 2.0 6.0 0.00 0.00 0.00 62 1004.9
20170921011319 72 237 2.0 6.0 0.00 0.00 0.00 62 1004.9
20170921011020 73 243 2.0 6.0 0.00 0.00 0.00 61 1005.0
20170921010847 73 272 3.0 4.0 0.00 0.00 0.00 61 1005.0
20170921010717 73 272 3.0 4.0 0.00 0.00 0.00 61 1005.0
20170921010116 74 252 3.0 3.0 0.00 0.00 0.00 60 1004.9
20170921005914 74 222 1.0 5.0 0.00 0.00 0.00 59 1005.0
20170921005816 74 222 1.0 5.0 0.00 0.00 0.00 59 1005.0
20170921005514 75 239 1.0 5.0 0.00 0.00 0.00 58 1005.0
20170921005322 75 182 1.0 6.0 0.00 0.00 0.00 58 1005.0
20170921005213 75 182 1.0 6.0 0.00 0.00 0.00 58 1005.0
20170921004912 76 256 5.0 5.0 0.00 0.00 0.00 57 1004.9
20170921004611 76 187 2.0 5.0 0.00 0.00 0.00 57 1005.0
20170921004440 76 236 1.0 5.0 0.00 0.00 0.00 57 1004.9
20170921004310 76 236 1.0 5.0 0.00 0.00 0.00 57 1004.9
20170921004135 77 249 1.0 5.0 0.00 0.00 0.00 56 1005.0
20170921004009 77 249 1.0 5.0 0.00 0.00 0.00 56 1005.0
20170921003707 77 237 3.0 4.0 0.00 0.00 0.00 56 1004.9
20170921003406 78 249 4.0 6.0 0.00 0.00 0.00 56 1005.1
20170921003105 78 236 4.0 5.0 0.00 0.00 0.00 56 1005.2
20170921002803 78 261 3.0 6.0 0.00 0.00 0.00 55 1005.1
20170921002503 78 213 3.0 3.0 0.00 0.00 0.00 56 1005.2
20170921002202 78 200 1.0 5.0 0.00 0.00 0.00 55 1005.0
20170921001600 79 150 3.0 4.0 0.00 0.00 0.00 55 1005.1
20170921001259 79 215 3.0 5.0 0.00 0.00 0.00 55 1005.1
20170921000957 79 267 3.0 6.0 0.00 0.00 0.00 55 1005.1
20170921000854 79 258 4.0 6.0 0.00 0.00 0.00 55 1005.1
20170921000655 79 258 4.0 6.0 0.00 0.00 0.00 55 1005.1
20170921000504 79 229 4.0 6.0 0.00 0.00 0.00 55 1005.1
20170921000356 79 229 4.0 6.0 0.00 0.00 0.00 55 1005.1
20170921000206 79 243 4.0 6.0 0.00 0.00 0.00 55 1005.2
20170921000053 79 243 4.0 6.0 0.00 0.00 0.00 55 1005.2
20170920235911 79 270 1.0 5.0 0.00 0.00 0.00 55 1005.2
20170920235752 79 270 1.0 5.0 0.00 0.00 0.00 55 1005.2
20170920235621 80 85 1.0 6.0 0.00 0.00 0.00 55 1005.3
20170920235450 80 85 1.0 6.0 0.00 0.00 0.00 55 1005.3
20170920235309 80 276 2.0 6.0 0.00 0.00 0.00 55 1005.2
20170920235151 80 276 2.0 6.0 0.00 0.00 0.00 55 1005.2
20170920234849 80 227 2.0 6.0 0.00 0.00 0.00 55 1005.2
20170920234714 79 258 1.0 6.0 0.00 0.00 0.00 55 1005.2
20170920234549 79 258 1.0 6.0 0.00 0.00 0.00 55 1005.2
20170920234058 79 247 3.0 5.0 0.00 0.00 0.00 56 1005.2
20170920233945 79 247 3.0 5.0 0.00 0.00 0.00 56 1005.2
20170920233831 79 267 2.0 6.0 0.00 0.00 0.00 56 1005.2
20170920233645 79 267 2.0 6.0 0.00 0.00 0.00 56 1005.2
20170920233504 79 252 4.0 6.0 0.00 0.00 0.00 56 1005.2
20170920233343 79 252 4.0 6.0 0.00 0.00 0.00 56 1005.2
20170920233043 78 177 3.0 6.0 0.00 0.00 0.00 57 1005.2
20170920232742 78 232 2.0 8.0 0.00 0.00 0.00 57 1005.4
20170920232602 78 239 5.0 8.0 0.00 0.00 0.00 57 1005.2
20170920232440 78 239 5.0 8.0 0.00 0.00 0.00 57 1005.2
20170920232139 78 180 2.0 6.0 0.00 0.00 0.00 57 1005.3
20170920231839 78 237 3.0 7.0 0.00 0.00 0.00 57 1005.3
20170920231647 78 245 6.0 10.0 0.00 0.00 0.00 56 1005.2
20170920231537 78 245 6.0 10.0 0.00 0.00 0.00 56 1005.2
20170920231322 77 254 5.0 7.0 0.00 0.00 0.00 57 1005.1
20170920231237 77 254 5.0 7.0 0.00 0.00 0.00 57 1005.1
20170920230635 77 279 12.0 12.0 0.00 0.00 0.00 56 1005.2
20170920230333 77 252 4.0 7.0 0.00 0.00 0.00 56 1005.2
20170920230151 77 252 5.0 6.0 0.00 0.00 0.00 56 1005.0
20170920230031 77 252 5.0 6.0 0.00 0.00 0.00 56 1005.0
20170920225847 78 252 3.0 8.0 0.00 0.00 0.00 55 1005.5
20170920225729 78 252 3.0 8.0 0.00 0.00 0.00 55 1005.5
20170920225430 78 230 3.0 10.0 0.00 0.00 0.00 55 1005.4
20170920225242 79 270 10.0 10.0 0.00 0.00 0.00 53 1005.4
20170920225130 79 270 10.0 10.0 0.00 0.00 0.00 53 1005.4
20170920225002 79 255 5.0 9.0 0.00 0.00 0.00 53 1005.3
20170920224828 79 255 5.0 9.0 0.00 0.00 0.00 53 1005.3
20170920224525 80 252 6.0 11.0 0.00 0.00 0.00 53 1005.4
20170920224224 80 238 3.0 6.0 0.00 0.00 0.00 53 1005.3
20170920224141 80 270 8.0 13.0 0.00 0.00 0.00 52 1005.3
20170920223923 80 270 8.0 13.0 0.00 0.00 0.00 52 1005.3
20170920223623 80 261 8.0 9.0 0.00 0.00 0.00 52 1005.4
20170920223323 81 230 4.0 9.0 0.00 0.00 0.00 52 1005.4
20170920223124 81 258 6.0 15.0 0.00 0.00 0.00 52 1005.2
20170920223020 81 258 6.0 15.0 0.00 0.00 0.00 52 1005.2
20170920222842 81 279 9.0 14.0 0.00 0.00 0.00 52 1005.2
20170920222720 81 279 9.0 14.0 0.00 0.00 0.00 52 1005.2
20170920222254 82 256 6.0 9.0 0.00 0.00 0.00 52 1005.3
20170920222118 82 256 6.0 9.0 0.00 0.00 0.00 52 1005.3
20170920221921 82 227 1.0 7.0 0.00 0.00 0.00 52 1005.4
20170920221817 82 227 1.0 7.0 0.00 0.00 0.00 52 1005.4
20170920221703 82 267 1.0 7.0 0.00 0.00 0.00 52 1005.5
20170920221516 82 267 1.0 7.0 0.00 0.00 0.00 52 1005.5
20170920221239 81 237 3.0 12.0 0.00 0.00 0.00 52 1005.5
20170920221213 81 217 1.0 7.0 0.00 0.00 0.00 52 1005.4
20170920221151 81 261 5.0 7.0 0.00 0.00 0.00 52 1005.5
20170920221100 81 275 2.0 8.0 0.00 0.00 0.00 53 1005.5
20170920221007 81 245 6.0 13.0 0.00 0.00 0.00 52 1005.6
20170920220914 81 261 5.0 7.0 0.00 0.00 0.00 52 1005.5
20170920220912 81 252 6.0 12.0 0.00 0.00 0.00 52 1005.5
20170920220814 81 252 6.0 12.0 0.00 0.00 0.00 52 1005.5
20170920220713 81 275 2.0 8.0 0.00 0.00 0.00 53 1005.5
20170920220613 81 275 2.0 8.0 0.00 0.00 0.00 53 1005.5
20170920220606 81 272 13.0 13.0 0.00 0.00 0.00 52 1005.4
20170920220459 81 252 6.0 12.0 0.00 0.00 0.00 52 1005.5
20170920220348 81 272 13.0 13.0 0.00 0.00 0.00 52 1005.4
20170920220312 81 243 5.0 10.0 0.00 0.00 0.00 52 1005.6
20170920220237 81 237 3.0 12.0 0.00 0.00 0.00 52 1005.5
20170920220125 81 237 3.0 12.0 0.00 0.00 0.00 52 1005.5
20170920220010 81 252 6.0 12.0 0.00 0.00 0.00 52 1005.5
20170920215852 81 237 3.0 12.0 0.00 0.00 0.00 52 1005.5
20170920215731 81 272 13.0 13.0 0.00 0.00 0.00 52 1005.4
20170920215709 81 237 3.0 12.0 0.00 0.00 0.00 52 1005.5
20170920215606 81 245 6.0 13.0 0.00 0.00 0.00 52 1005.6
20170920215436 81 272 13.0 13.0 0.00 0.00 0.00 52 1005.4
20170920215408 81 270 9.0 12.0 0.00 0.00 0.00 52 1005.4
20170920215303 81 252 6.0 12.0 0.00 0.00 0.00 52 1005.5
20170920215125 81 252 6.0 12.0 0.00 0.00 0.00 52 1005.5
20170920215106 81 217 1.0 7.0 0.00 0.00 0.00 52 1005.5
20170920214942 81 245 6.0 13.0 0.00 0.00 0.00 52 1005.6
20170920214804 81 252 6.0 12.0 0.00 0.00 0.00 52 1005.5
20170920214753 81 245 6.0 13.0 0.00 0.00 0.00 52 1005.6
20170920214600 81 245 6.0 13.0 0.00 0.00 0.00 52 1005.6
20170920214505 81 261 5.0 12.0 0.00 0.00 0.00 52 1005.5
20170920214400 81 272 13.0 13.0 0.00 0.00 0.00 52 1005.4
20170920214203 81 245 6.0 13.0 0.00 0.00 0.00 52 1005.6
20170920214155 81 272 13.0 13.0 0.00 0.00 0.00 52 1005.4
20170920213903 81 272 13.0 13.0 0.00 0.00 0.00 52 1005.4
20170920213600 81 261 5.0 7.0 0.00 0.00 0.00 52 1005.8
20170920213301 81 261 3.0 8.0 0.00 0.00 0.00 53 1005.8
20170920212958 80 261 3.0 8.0 0.00 0.00 0.00 53 1005.8
20170920212657 80 249 6.0 10.0 0.00 0.00 0.00 53 1005.8
20170920212355 80 256 3.0 10.0 0.00 0.00 0.00 54 1005.9
20170920212055 79 265 4.0 10.0 0.00 0.00 0.00 54 1005.8
20170920211755 79 263 5.0 12.0 0.00 0.00 0.00 53 1005.9
20170920211452 80 270 4.0 11.0 0.00 0.00 0.00 53 1005.7
20170920211151 80 261 8.0 13.0 0.00 0.00 0.00 52 1006.0
20170920210851 81 299 9.0 13.0 0.00 0.00 0.00 52 1005.9
20170920210551 81 265 7.0 11.0 0.00 0.00 0.00 53 1006.0
20170920210248 81 263 5.0 7.0 0.00 0.00 0.00 53 1006.1
20170920210101 80 238 1.0 7.0 0.00 0.00 0.00 54 1006.1
20170920205948 80 238 1.0 7.0 0.00 0.00 0.00 54 1006.1
20170920205519 81 265 4.0 6.0 0.00 0.00 0.00 52 1006.1
20170920205344 81 265 4.0 6.0 0.00 0.00 0.00 52 1006.1
20170920205218 81 270 6.0 10.0 0.00 0.00 0.00 53 1006.1
20170920205045 81 270 6.0 10.0 0.00 0.00 0.00 53 1006.1
20170920204744 81 265 2.0 10.0 0.00 0.00 0.00 52 1006.0
20170920204620 81 261 5.0 10.0 0.00 0.00 0.00 52 1006.1
20170920204442 81 261 5.0 10.0 0.00 0.00 0.00 52 1006.1
20170920204403 82 297 7.0 10.0 0.00 0.00 0.00 51 1006.1
20170920204140 82 297 7.0 10.0 0.00 0.00 0.00 51 1006.1
20170920203840 83 252 5.0 6.0 0.00 0.00 0.00 52 1006.2
20170920203658 83 229 1.0 6.0 0.00 0.00 0.00 52 1006.2
20170920203538 83 229 1.0 6.0 0.00 0.00 0.00 52 1006.2
20170920202937 83 258 5.0 6.0 0.00 0.00 0.00 52 1006.3
20170920202834 83 243 4.0 6.0 0.00 0.00 0.00 52 1006.3
20170920202636 83 243 4.0 6.0 0.00 0.00 0.00 52 1006.3
20170920202508 83 230 1.0 5.0 0.00 0.00 0.00 52 1006.3
20170920202333 83 230 1.0 5.0 0.00 0.00 0.00 52 1006.3
20170920201930 83 279 3.0 9.0 0.00 0.00 0.00 52 1006.4
20170920201732 83 279 3.0 9.0 0.00 0.00 0.00 52 1006.4
20170920201551 83 258 3.0 8.0 0.00 0.00 0.00 52 1006.6
20170920201430 83 258 3.0 8.0 0.00 0.00 0.00 52 1006.6
20170920201310 84 236 4.0 8.0 0.00 0.00 0.00 52 1006.5
20170920201130 84 236 4.0 8.0 0.00 0.00 0.00 52 1006.5
20170920200828 84 279 5.0 7.0 0.00 0.00 0.00 52 1006.6
20170920200733 84 261 7.0 7.0 0.00 0.00 0.00 54 1006.5
20170920200528 84 261 7.0 7.0 0.00 0.00 0.00 54 1006.5
20170920200415 84 240 1.0 6.0 0.00 0.00 0.00 54 1006.8
20170920200227 84 240 1.0 6.0 0.00 0.00 0.00 54 1006.8
20170920200056 84 254 5.0 6.0 0.00 0.00 0.00 55 1006.9
20170920195927 84 254 5.0 6.0 0.00 0.00 0.00 55 1006.9
20170920195743 83 254 5.0 5.0 0.00 0.00 0.00 55 1006.7
20170920195624 83 254 5.0 5.0 0.00 0.00 0.00 55 1006.7
20170920195458 83 254 4.0 4.0 0.00 0.00 0.00 55 1006.6
20170920195324 83 254 4.0 4.0 0.00 0.00 0.00 55 1006.6
20170920195128 83 227 0.0 5.0 0.00 0.00 0.00 56 1006.6
20170920195021 83 227 0.0 5.0 0.00 0.00 0.00 56 1006.6
20170920194721 82 265 4.0 6.0 0.00 0.00 0.00 56 1006.5
20170920194546 81 238 3.0 4.0 0.00 0.00 0.00 57 1006.7
20170920194421 81 238 3.0 4.0 0.00 0.00 0.00 57 1006.7
20170920194256 81 258 4.0 4.0 0.00 0.00 0.00 58 1006.9
20170920194119 81 258 4.0 4.0 0.00 0.00 0.00 58 1006.9
20170920193817 80 261 3.0 8.0 0.00 0.00 0.00 58 1006.9
20170920193518 79 267 7.0 7.0 0.00 0.00 0.00 59 1006.8
20170920192743 78 247 0.0 3.0 0.00 0.00 0.00 61 1006.7
20170920192614 78 247 0.0 3.0 0.00 0.00 0.00 61 1006.7
20170920192439 77 228 0.0 7.0 0.00 0.00 0.00 61 1006.9
20170920192311 77 228 0.0 7.0 0.00 0.00 0.00 61 1006.9
20170920192125 77 252 3.0 10.0 0.00 0.00 0.00 61 1006.8
20170920192011 77 252 3.0 10.0 0.00 0.00 0.00 61 1006.8
20170920191851 77 270 10.0 10.0 0.00 0.00 0.00 61 1006.8
20170920191709 77 270 10.0 10.0 0.00 0.00 0.00 61 1006.8
20170920191540 76 281 6.0 6.0 0.00 0.00 0.00 62 1006.8
20170920191409 76 281 6.0 6.0 0.00 0.00 0.00 62 1006.8
20170920191224 76 245 4.0 7.0 0.00 0.00 0.00 62 1007.0
20170920191108 76 245 4.0 7.0 0.00 0.00 0.00 62 1007.0
20170920190932 75 272 5.0 6.0 0.00 0.00 0.00 62 1006.8
20170920190807 75 272 5.0 6.0 0.00 0.00 0.00 62 1006.8
20170920190506 76 285 5.0 9.0 0.00 0.00 0.00 62 1006.8
20170920190400 76 279 6.0 8.0 0.00 0.00 0.00 62 1007.0
20170920190203 76 279 6.0 8.0 0.00 0.00 0.00 62 1007.0
20170920190108 76 310 7.0 8.0 0.00 0.00 0.00 62 1007.0
20170920185904 76 310 7.0 8.0 0.00 0.00 0.00 62 1007.0
20170920185750 76 265 5.0 8.0 0.00 0.00 0.00 63 1007.0
20170920185601 76 265 5.0 8.0 0.00 0.00 0.00 63 1007.0
20170920185425 76 270 8.0 8.0 0.00 0.00 0.00 63 1007.1
20170920185301 76 270 8.0 8.0 0.00 0.00 0.00 63 1007.1
20170920184959 76 265 5.0 6.0 0.00 0.00 0.00 64 1007.1
20170920184659 76 263 5.0 6.0 0.00 0.00 0.00 64 1007.1
20170920184057 76 252 3.0 6.0 0.00 0.00 0.00 64 1007.1
20170920183918 76 279 5.0 6.0 0.00 0.00 0.00 65 1007.2
20170920183756 76 279 5.0 6.0 0.00 0.00 0.00 65 1007.2
20170920183613 75 245 3.0 3.0 0.00 0.00 0.00 66 1007.3
20170920183454 75 245 3.0 3.0 0.00 0.00 0.00 66 1007.3
20170920183316 75 225 0.0 3.0 0.00 0.00 0.00 66 1007.4
20170920183154 75 225 0.0 3.0 0.00 0.00 0.00 66 1007.4
20170920183025 75 225 1.0 3.0 0.00 0.00 0.00 67 1007.5
20170920182851 75 225 1.0 3.0 0.00 0.00 0.00 67 1007.5
20170920182551 74 263 2.0 4.0 0.00 0.00 0.00 66 1007.5
20170920182422 74 0 2.0 6.0 0.00 0.00 0.00 66 1007.5
20170920182251 74 0 2.0 6.0 0.00 0.00 0.00 66 1007.5
20170920182120 74 270 4.0 4.0 0.00 0.00 0.00 66 1007.5
20170920181951 74 270 4.0 4.0 0.00 0.00 0.00 66 1007.5
20170920181648 74 310 2.0 6.0 0.00 0.00 0.00 65 1007.5
20170920181524 75 260 1.0 7.0 0.00 0.00 0.00 66 1007.5
20170920181346 75 260 1.0 7.0 0.00 0.00 0.00 66 1007.5
20170920181047 75 256 3.0 3.0 0.00 0.00 0.00 67 1007.5
20170920180637 74 189 1.0 7.0 0.00 0.00 0.00 68 1007.5
20170920180444 74 189 1.0 7.0 0.00 0.00 0.00 68 1007.5
20170920180325 74 263 4.0 7.0 0.00 0.00 0.00 68 1007.5
20170920180142 74 263 4.0 7.0 0.00 0.00 0.00 68 1007.5
20170920175842 74 234 0.0 3.0 0.00 0.00 0.00 69 1007.5
20170920175540 74 240 1.0 4.0 0.00 0.00 0.00 69 1007.3
20170920175411 74 240 2.0 4.0 0.00 0.00 0.00 69 1007.2
20170920175239 74 240 2.0 4.0 0.00 0.00 0.00 69 1007.2
20170920175101 74 270 4.0 4.0 0.00 0.00 0.00 70 1007.3
20170920174937 74 270 4.0 4.0 0.00 0.00 0.00 70 1007.3
20170920174636 73 247 1.0 5.0 0.00 0.00 0.00 70 1007.3
20170920174608 73 267 4.0 5.0 0.00 0.00 0.00 71 1007.2
20170920174336 73 267 4.0 5.0 0.00 0.00 0.00 71 1007.2
20170920174300 73 234 1.0 7.0 0.00 0.00 0.00 71 1007.3
20170920174034 73 234 1.0 7.0 0.00 0.00 0.00 71 1007.3
20170920173910 73 276 5.0 7.0 0.00 0.00 0.00 72 1007.2
20170920173733 73 276 5.0 7.0 0.00 0.00 0.00 72 1007.2
20170920173556 73 252 1.0 4.0 0.00 0.00 0.00 72 1007.3
20170920173432 73 252 1.0 4.0 0.00 0.00 0.00 72 1007.3
20170920172831 73 270 0.0 3.0 0.00 0.00 0.00 72 1007.3
20170920172530 72 243 1.0 3.0 0.00 0.00 0.00 73 1007.4
20170920172434 72 227 0.0 3.0 0.00 0.00 0.00 74 1007.5
20170920172228 72 227 0.0 3.0 0.00 0.00 0.00 74 1007.5
20170920172034 72 225 0.0 3.0 0.00 0.00 0.00 74 1007.5
20170920171926 72 225 0.0 3.0 0.00 0.00 0.00 74 1007.5
20170920171325 71 45 0.0 3.0 0.00 0.00 0.00 74 1007.5
20170920171220 71 193 0.0 3.0 0.00 0.00 0.00 74 1007.4
20170920171024 71 193 0.0 3.0 0.00 0.00 0.00 74 1007.4
20170920170722 70 225 0.0 2.0 0.00 0.00 0.00 75 1007.4
20170920170548 70 140 1.0 3.0 0.00 0.00 0.00 75 1007.4
20170920170422 70 140 1.0 3.0 0.00 0.00 0.00 75 1007.4
20170920170120 70 198 1.0 2.0 0.00 0.00 0.00 76 1007.4
20170920170008 70 276 1.0 2.0 0.00 0.00 0.00 76 1007.4
20170920165818 70 276 1.0 2.0 0.00 0.00 0.00 76 1007.4
20170920165653 70 0 0.0 4.0 0.00 0.00 0.00 76 1007.4
20170920165520 70 0 0.0 4.0 0.00 0.00 0.00 76 1007.4
20170920165349 70 112 2.0 5.0 0.00 0.00 0.00 76 1007.5
20170920165217 70 112 2.0 5.0 0.00 0.00 0.00 76 1007.5
20170920165107 70 99 4.0 5.0 0.00 0.00 0.00 76 1007.5
20170920164916 70 99 4.0 5.0 0.00 0.00 0.00 76 1007.5
20170920164740 70 90 3.0 4.0 0.00 0.00 0.00 75 1007.5
20170920164615 70 90 3.0 4.0 0.00 0.00 0.00 75 1007.5
20170920164313 70 90 4.0 4.0 0.00 0.00 0.00 75 1007.4
20170920163912 70 105 2.0 5.0 0.00 0.00 0.00 77 1007.3
20170920163711 70 105 2.0 5.0 0.00 0.00 0.00 77 1007.3
20170920163522 70 150 2.0 4.0 0.00 0.00 0.00 78 1007.4
20170920163411 70 150 2.0 4.0 0.00 0.00 0.00 78 1007.4
20170920163109 70 99 2.0 5.0 0.00 0.00 0.00 79 1007.3
20170920162808 70 96 4.0 5.0 0.00 0.00 0.00 79 1007.5
20170920162506 69 171 3.0 4.0 0.00 0.00 0.00 82 1007.3
20170920162339 69 96 3.0 5.0 0.00 0.00 0.00 82 1007.2
20170920162206 69 96 3.0 5.0 0.00 0.00 0.00 82 1007.2
20170920161904 69 126 3.0 4.0 0.00 0.00 0.00 84 1007.1
20170920161737 68 144 2.0 3.0 0.00 0.00 0.00 84 1007.1
20170920161604 68 144 2.0 3.0 0.00 0.00 0.00 84 1007.1
20170920161304 68 128 2.0 4.0 0.00 0.00 0.00 85 1007.1
20170920160839 67 162 1.0 2.0 0.00 0.00 0.00 86 1007.2
20170920160701 67 162 1.0 2.0 0.00 0.00 0.00 86 1007.2
20170920160400 67 180 0.0 2.0 0.00 0.00 0.00 87 1007.3
20170920160059 66 119 1.0 2.0 0.00 0.00 0.00 88 1007.1
20170920155933 66 175 0.0 3.0 0.00 0.00 0.00 87 1007.2
20170920155757 66 175 0.0 3.0 0.00 0.00 0.00 87 1007.2
20170920155616 66 146 1.0 2.0 0.00 0.00 0.00 88 1007.2
20170920155455 66 146 1.0 2.0 0.00 0.00 0.00 88 1007.2
20170920155303 65 135 0.0 2.0 0.00 0.00 0.00 88 1006.9
20170920155155 65 135 0.0 2.0 0.00 0.00 0.00 88 1006.9
20170920154853 65 211 0.0 1.0 0.00 0.00 0.00 89 1007.0
20170920154657 64 135 1.0 1.0 0.00 0.00 0.00 90 1006.9
20170920154553 64 135 1.0 1.0 0.00 0.00 0.00 90 1006.9
20170920154440 64 135 1.0 1.0 0.00 0.00 0.00 90 1006.8
20170920154252 64 135 1.0 1.0 0.00 0.00 0.00 90 1006.8
20170920154138 63 155 1.0 1.0 0.00 0.00 0.00 90 1006.7
20170920153954 63 155 1.0 1.0 0.00 0.00 0.00 90 1006.7
20170920153825 63 225 0.0 1.0 0.00 0.00 0.00 91 1006.8
20170920153649 63 225 0.0 1.0 0.00 0.00 0.00 91 1006.8
20170920153544 62 180 0.0 1.0 0.00 0.00 0.00 91 1006.7
20170920153347 62 180 0.0 1.0 0.00 0.00 0.00 91 1006.7
20170920153203 62 180 0.0 1.0 0.00 0.00 0.00 91 1006.4
20170920153046 62 180 0.0 1.0 0.00 0.00 0.00 91 1006.4
20170920153029 62 180 1.0 1.0 0.00 0.00 0.00 92 1006.7
20170920152745 62 180 1.0 1.0 0.00 0.00 0.00 92 1006.7
20170920152629 62 180 0.0 1.0 0.00 0.00 0.00 92 1006.8
20170920152444 62 180 0.0 1.0 0.00 0.00 0.00 92 1006.8
20170920152339 61 173 0.0 1.0 0.00 0.00 0.00 92 1006.6
20170920152145 61 173 0.0 1.0 0.00 0.00 0.00 92 1006.6
20170920151843 61 135 1.0 1.0 0.00 0.00 0.00 92 1006.4
20170920151542 61 126 1.0 1.0 0.00 0.00 0.00 92 1006.6
20170920151120 60 90 0.0 1.0 0.00 0.00 0.00 93 1006.6
20170920150940 60 90 0.0 1.0 0.00 0.00 0.00 93 1006.6
20170920150810 60 90 0.0 1.0 0.00 0.00 0.00 93 1006.6
20170920150638 60 90 0.0 1.0 0.00 0.00 0.00 93 1006.6
20170920150517 59 218 0.0 1.0 0.00 0.00 0.00 93 1006.6
20170920150336 59 218 0.0 1.0 0.00 0.00 0.00 93 1006.6
20170920150223 59 180 1.0 1.0 0.00 0.00 0.00 93 1006.5
20170920150036 59 180 1.0 1.0 0.00 0.00 0.00 93 1006.5
20170920145901 59 135 0.0 1.0 0.00 0.00 0.00 93 1006.4
20170920145734 59 135 0.0 1.0 0.00 0.00 0.00 93 1006.4
20170920145625 59 126 1.0 1.0 0.00 0.00 0.00 94 1006.2
20170920145434 59 126 1.0 1.0 0.00 0.00 0.00 94 1006.2
20170920144831 58 135 1.0 2.0 0.00 0.00 0.00 93 1006.2
20170920144408 58 90 1.0 2.0 0.00 0.00 0.00 93 1006.2
20170920144229 58 90 1.0 2.0 0.00 0.00 0.00 93 1006.2
20170920143928 58 90 2.0 3.0 0.00 0.00 0.00 95 1006.3
20170920143819 58 99 2.0 3.0 0.00 0.00 0.00 95 1006.3
20170920143626 58 99 2.0 3.0 0.00 0.00 0.00 95 1006.3
20170920143500 57 114 2.0 2.0 0.00 0.00 0.00 95 1006.2
20170920143327 57 114 2.0 2.0 0.00 0.00 0.00 95 1006.2
20170920143202 57 92 2.0 3.0 0.00 0.00 0.00 95 1006.2
20170920143024 57 92 2.0 3.0 0.00 0.00 0.00 95 1006.2
20170920142901 57 99 2.0 2.0 0.00 0.00 0.00 95 1006.1
20170920142725 57 99 2.0 2.0 0.00 0.00 0.00 95 1006.1
20170920142423 56 69 2.0 3.0 0.00 0.00 0.00 95 1006.2
20170920142258 56 103 2.0 3.0 0.00 0.00 0.00 95 1006.0
20170920142121 56 103 2.0 3.0 0.00 0.00 0.00 95 1006.0
20170920141822 56 90 2.0 5.0 0.00 0.00 0.00 95 1005.9
20170920141703 56 101 3.0 3.0 0.00 0.00 0.00 95 1005.9
20170920141520 56 101 3.0 3.0 0.00 0.00 0.00 95 1005.9
20170920141218 56 90 2.0 3.0 0.00 0.00 0.00 95 1005.9
20170920140617 55 90 1.0 3.0 0.00 0.00 0.00 95 1005.8
20170920140429 55 90 1.0 4.0 0.00 0.00 0.00 95 1005.8
20170920140314 55 90 1.0 4.0 0.00 0.00 0.00 95 1005.8
20170920140153 55 83 2.0 4.0 0.00 0.00 0.00 95 1005.8
20170920140013 55 83 2.0 4.0 0.00 0.00 0.00 95 1005.8
20170920135522 55 135 1.0 3.0 0.00 0.00 0.00 95 1005.7
20170920135412 55 135 1.0 3.0 0.00 0.00 0.00 95 1005.7
20170920135313 55 67 3.0 3.0 0.00 0.00 0.00 95 1005.7
20170920135110 55 67 3.0 3.0 0.00 0.00 0.00 95 1005.7
20170920134945 55 90 2.0 3.0 0.00 0.00 0.00 95 1005.7
20170920134809 55 90 2.0 3.0 0.00 0.00 0.00 95 1005.7
20170920134508 55 87 3.0 4.0 0.00 0.00 0.00 95 1005.7
20170920134245 55 78 3.0 4.0 0.00 0.00 0.00 95 1005.6
20170920134208 55 78 3.0 4.0 0.00 0.00 0.00 95 1005.6
20170920134038 55 90 4.0 4.0 0.00 0.00 0.00 95 1005.6
20170920133906 55 90 4.0 4.0 0.00 0.00 0.00 95 1005.6
20170920133607 55 90 2.0 4.0 0.00 0.00 0.00 95 1005.6
20170920133510 55 87 3.0 3.0 0.00 0.00 0.00 95 1005.6
20170920133303 55 87 3.0 3.0 0.00 0.00 0.00 95 1005.6
20170920133140 55 83 3.0 3.0 0.00 0.00 0.00 95 1005.7
20170920133003 55 83 3.0 3.0 0.00 0.00 0.00 95 1005.7
20170920132807 55 90 2.0 3.0 0.00 0.00 0.00 95 1005.5
20170920132701 55 90 2.0 3.0 0.00 0.00 0.00 95 1005.5
20170920132515 55 90 2.0 3.0 0.00 0.00 0.00 95 1005.5
20170920132400 55 90 2.0 3.0 0.00 0.00 0.00 95 1005.5
20170920132247 55 96 1.0 2.0 0.00 0.00 0.00 95 1005.6
20170920132059 55 96 1.0 2.0 0.00 0.00 0.00 95 1005.6
20170920132003 55 90 2.0 3.0 0.00 0.00 0.00 95 1005.6
20170920131800 55 90 2.0 3.0 0.00 0.00 0.00 95 1005.6
20170920131457 55 92 3.0 3.0 0.00 0.00 0.00 95 1005.5
20170920131157 55 135 1.0 1.0 0.00 0.00 0.00 94 1005.5
20170920130509 55 90 1.0 1.0 0.00 0.00 0.00 94 1005.4
20170920130254 55 90 1.0 1.0 0.00 0.00 0.00 94 1005.4
20170920130128 55 112 1.0 2.0 0.00 0.00 0.00 94 1005.3
20170920125951 55 112 1.0 2.0 0.00 0.00 0.00 94 1005.3
20170920125650 55 180 0.0 1.0 0.00 0.00 0.00 94 1005.4
20170920125426 55 130 1.0 1.0 0.00 0.00 0.00 94 1005.4
20170920125350 55 130 1.0 1.0 0.00 0.00 0.00 94 1005.4
20170920125230 55 135 1.0 1.0 0.00 0.00 0.00 94 1005.5
20170920125050 55 135 1.0 1.0 0.00 0.00 0.00 94 1005.5
20170920124911 55 135 1.0 1.0 0.00 0.00 0.00 94 1005.4
20170920124747 55 135 1.0 1.0 0.00 0.00 0.00 94 1005.4
20170920124525 55 135 0.0 3.0 0.00 0.00 0.00 94 1005.4
20170920124447 55 135 0.0 3.0 0.00 0.00 0.00 94 1005.4
20170920123845 56 135 1.0 3.0 0.00 0.00 0.00 94 1005.4
20170920123714 56 87 2.0 3.0 0.00 0.00 0.00 94 1005.4
20170920123542 56 87 2.0 3.0 0.00 0.00 0.00 94 1005.4
20170920123437 56 81 3.0 3.0 0.00 0.00 0.00 94 1005.3
20170920123241 56 81 3.0 3.0 0.00 0.00 0.00 94 1005.3
20170920123107 56 92 2.0 3.0 0.00 0.00 0.00 94 1005.4
20170920122940 56 92 2.0 3.0 0.00 0.00 0.00 94 1005.4
20170920122423 56 90 2.0 3.0 0.00 0.00 0.00 94 1005.3
20170920122338 56 92 2.0 3.0 0.00 0.00 0.00 94 1005.3
20170920122037 56 90 2.0 3.0 0.00 0.00 0.00 94 1005.3
20170920121910 56 94 2.0 4.0 0.00 0.00 0.00 94 1005.3
20170920121737 56 94 2.0 4.0 0.00 0.00 0.00 94 1005.3
20170920121439 56 90 3.0 4.0 0.00 0.00 0.00 94 1005.3
20170920121436 56 90 3.0 4.0 0.00 0.00 0.00 94 1005.2
20170920121229 56 94 3.0 4.0 0.00 0.00 0.00 94 1005.2
20170920121135 56 90 3.0 4.0 0.00 0.00 0.00 94 1005.3
20170920120834 56 94 3.0 4.0 0.00 0.00 0.00 94 1005.2
20170920120604 56 90 4.0 6.0 0.00 0.00 0.00 94 1005.3
20170920120531 56 90 3.0 5.0 0.00 0.00 0.00 94 1005.3
20170920120232 56 90 4.0 6.0 0.00 0.00 0.00 94 1005.3
20170920120157 56 92 4.0 4.0 0.00 0.00 0.00 94 1005.4
20170920115929 56 92 4.0 4.0 0.00 0.00 0.00 94 1005.4
20170920115629 56 90 3.0 4.0 0.00 0.00 0.00 94 1005.3
20170920115602 56 92 4.0 4.0 0.00 0.00 0.00 94 1005.3
20170920115327 56 92 4.0 4.0 0.00 0.00 0.00 94 1005.3
20170920115027 56 87 3.0 4.0 0.00 0.00 0.00 94 1005.3
20170920115002 56 80 2.0 4.0 0.00 0.00 0.00 94 1005.2
20170920114725 56 80 2.0 4.0 0.00 0.00 0.00 94 1005.2
20170920114702 56 85 2.0 4.0 0.00 0.00 0.00 93 1005.2
20170920114425 56 85 2.0 4.0 0.00 0.00 0.00 93 1005.2
20170920114421 56 72 1.0 3.0 0.00 0.00 0.00 94 1005.3
20170920114227 56 72 1.0 3.0 0.00 0.00 0.00 94 1005.3
20170920114123 56 72 1.0 3.0 0.00 0.00 0.00 94 1005.3
20170920114038 56 81 2.0 3.0 0.00 0.00 0.00 94 1005.3
20170920113823 56 81 2.0 3.0 0.00 0.00 0.00 94 1005.3
20170920113442 56 78 3.0 3.0 0.00 0.00 0.00 94 1005.3
20170920113220 56 78 3.0 3.0 0.00 0.00 0.00 94 1005.3
20170920113131 56 90 2.0 3.0 0.00 0.00 0.00 94 1005.2
20170920112918 56 90 2.0 3.0 0.00 0.00 0.00 94 1005.2
20170920112617 56 90 2.0 3.0 0.00 0.00 0.00 94 1005.2
20170920112538 56 119 1.0 2.0 0.00 0.00 0.00 94 1005.4
20170920112316 56 119 1.0 2.0 0.00 0.00 0.00 94 1005.4
20170920112211 56 105 1.0 2.0 0.00 0.00 0.00 94 1005.3
20170920112017 56 105 1.0 2.0 0.00 0.00 0.00 94 1005.3
20170920111823 56 90 1.0 2.0 0.00 0.00 0.00 94 1005.4
20170920111714 56 90 1.0 2.0 0.00 0.00 0.00 94 1005.4
20170920111653 56 87 2.0 2.0 0.00 0.00 0.00 94 1005.4
20170920111413 56 87 2.0 2.0 0.00 0.00 0.00 94 1005.4
20170920111111 56 99 2.0 3.0 0.00 0.00 0.00 94 1005.4
20170920111018 56 90 2.0 4.0 0.00 0.00 0.00 94 1005.3
20170920110822 56 90 3.0 4.0 0.00 0.00 0.00 93 1005.3
20170920110810 56 90 2.0 4.0 0.00 0.00 0.00 94 1005.3
20170920110511 56 90 3.0 4.0 0.00 0.00 0.00 93 1005.3
20170920110428 56 90 3.0 6.0 0.00 0.00 0.00 93 1005.3
20170920110209 56 90 3.0 6.0 0.00 0.00 0.00 93 1005.3
20170920110134 56 90 3.0 6.0 0.00 0.00 0.00 93 1005.3
20170920105907 56 90 3.0 6.0 0.00 0.00 0.00 93 1005.3
20170920105607 56 96 2.0 3.0 0.00 0.00 0.00 93 1005.3
20170920105305 56 99 1.0 3.0 0.00 0.00 0.00 93 1005.3
20170920105212 56 103 2.0 3.0 0.00 0.00 0.00 93 1005.2
20170920105004 56 103 2.0 3.0 0.00 0.00 0.00 93 1005.2
20170920104839 56 96 2.0 3.0 0.00 0.00 0.00 93 1005.4
20170920104703 56 96 2.0 3.0 0.00 0.00 0.00 93 1005.4
20170920104607 56 96 1.0 3.0 0.00 0.00 0.00 93 1005.2
20170920104403 56 96 1.0 3.0 0.00 0.00 0.00 93 1005.2
20170920104101 56 56 1.0 3.0 0.00 0.00 0.00 93 1005.3
20170920103759 56 83 3.0 3.0 0.00 0.00 0.00 93 1005.2
20170920103618 56 90 2.0 3.0 0.00 0.00 0.00 93 1005.3
20170920103458 56 90 2.0 3.0 0.00 0.00 0.00 93 1005.3
20170920103416 56 90 2.0 4.0 0.00 0.00 0.00 93 1005.3
20170920103157 56 90 2.0 4.0 0.00 0.00 0.00 93 1005.3
20170920102858 56 90 2.0 4.0 0.00 0.00 0.00 93 1005.4
20170920102738 56 90 2.0 4.0 0.00 0.00 0.00 92 1005.5
20170920102556 56 90 2.0 4.0 0.00 0.00 0.00 92 1005.5
20170920102509 56 90 3.0 4.0 0.00 0.00 0.00 92 1005.3
20170920102254 56 90 3.0 4.0 0.00 0.00 0.00 92 1005.3
20170920102146 56 83 2.0 3.0 0.00 0.00 0.00 93 1005.4
20170920101954 56 83 2.0 3.0 0.00 0.00 0.00 93 1005.4
20170920101822 57 87 3.0 3.0 0.00 0.00 0.00 92 1005.4
20170920101741 57 87 3.0 3.0 0.00 0.00 0.00 92 1005.4
20170920101652 57 87 3.0 3.0 0.00 0.00 0.00 92 1005.4
20170920101545 57 58 2.0 4.0 0.00 0.00 0.00 93 1005.3
20170920101350 57 58 2.0 4.0 0.00 0.00 0.00 93 1005.3
20170920101315 57 49 2.0 5.0 0.00 0.00 0.00 93 1005.4
20170920101049 57 49 2.0 5.0 0.00 0.00 0.00 93 1005.4
20170920100919 57 69 3.0 5.0 0.00 0.00 0.00 93 1005.4
20170920100748 57 69 3.0 5.0 0.00 0.00 0.00 93 1005.4
20170920100705 57 78 4.0 5.0 0.00 0.00 0.00 93 1005.5
20170920100447 57 78 4.0 5.0 0.00 0.00 0.00 93 1005.5
20170920100432 57 81 4.0 5.0 0.00 0.00 0.00 93 1005.5
20170920100146 57 81 4.0 5.0 0.00 0.00 0.00 93 1005.5
20170920095845 57 90 3.0 5.0 0.00 0.00 0.00 93 1005.5
20170920095544 57 92 2.0 5.0 0.00 0.00 0.00 93 1005.5
20170920095101 57 90 4.0 6.0 0.00 0.00 0.00 93 1005.6
20170920094942 57 90 4.0 6.0 0.00 0.00 0.00 93 1005.6
20170920094823 57 90 4.0 5.0 0.00 0.00 0.00 93 1005.6
20170920094640 57 90 4.0 5.0 0.00 0.00 0.00 93 1005.6
20170920094530 57 81 3.0 4.0 0.00 0.00 0.00 93 1005.7
20170920094339 57 81 3.0 4.0 0.00 0.00 0.00 93 1005.7
20170920094218 57 90 4.0 4.0 0.00 0.00 0.00 93 1005.7
20170920094040 57 90 4.0 4.0 0.00 0.00 0.00 93 1005.7
20170920093937 57 92 3.0 4.0 0.00 0.00 0.00 92 1005.7
20170920093737 57 92 3.0 4.0 0.00 0.00 0.00 92 1005.7
20170920093624 57 87 3.0 4.0 0.00 0.00 0.00 93 1005.6
20170920093436 57 87 3.0 4.0 0.00 0.00 0.00 93 1005.6
20170920093322 57 94 2.0 4.0 0.00 0.00 0.00 93 1005.7
20170920093135 57 94 2.0 4.0 0.00 0.00 0.00 93 1005.7
20170920092935 57 72 1.0 3.0 0.00 0.00 0.00 92 1005.8
20170920092835 57 72 1.0 3.0 0.00 0.00 0.00 92 1005.8
20170920092731 57 90 3.0 3.0 0.00 0.00 0.00 93 1005.8
20170920092533 57 90 3.0 3.0 0.00 0.00 0.00 93 1005.8
20170920092513 57 103 3.0 3.0 0.00 0.00 0.00 92 1005.8
20170920092233 57 103 3.0 3.0 0.00 0.00 0.00 92 1005.8
20170920092105 57 45 0.0 3.0 0.00 0.00 0.00 92 1005.8
20170920091930 57 45 0.0 3.0 0.00 0.00 0.00 92 1005.8
20170920091753 57 103 1.0 3.0 0.00 0.00 0.00 92 1005.8
20170920091629 57 103 1.0 3.0 0.00 0.00 0.00 92 1005.8
20170920091615 57 90 2.0 3.0 0.00 0.00 0.00 91 1005.9
20170920091328 57 90 2.0 3.0 0.00 0.00 0.00 91 1005.9
20170920091212 57 92 2.0 3.0 0.00 0.00 0.00 92 1005.9
20170920091027 57 92 2.0 3.0 0.00 0.00 0.00 92 1005.9
20170920090939 57 103 1.0 2.0 0.00 0.00 0.00 92 1005.9
20170920090726 57 103 1.0 2.0 0.00 0.00 0.00 92 1005.9
20170920090650 57 90 2.0 3.0 0.00 0.00 0.00 92 1005.8
20170920090425 57 90 2.0 3.0 0.00 0.00 0.00 92 1005.8
20170920090219 57 54 3.0 3.0 0.00 0.00 0.00 91 1006.0
20170920090125 57 54 3.0 3.0 0.00 0.00 0.00 91 1006.0
20170920090030 57 45 3.0 3.0 0.00 0.00 0.00 91 1006.0
20170920085823 57 45 3.0 3.0 0.00 0.00 0.00 91 1006.0
20170920085657 57 90 1.0 3.0 0.00 0.00 0.00 92 1005.9
20170920085523 57 90 1.0 3.0 0.00 0.00 0.00 92 1005.9
20170920085153 57 60 1.0 2.0 0.00 0.00 0.00 92 1005.9
20170920085009 57 60 1.0 2.0 0.00 0.00 0.00 92 1005.9
20170920084920 57 60 1.0 2.0 0.00 0.00 0.00 92 1005.9
20170920084717 57 85 2.0 2.0 0.00 0.00 0.00 91 1006.0
20170920084637 57 45 1.0 2.0 0.00 0.00 0.00 92 1006.0
20170920084620 57 85 2.0 2.0 0.00 0.00 0.00 91 1006.0
20170920084618 57 85 2.0 2.0 0.00 0.00 0.00 91 1006.0
20170920084317 57 45 1.0 2.0 0.00 0.00 0.00 92 1006.0
20170920084200 57 69 2.0 2.0 0.00 0.00 0.00 91 1006.0
20170920084104 57 69 2.0 2.0 0.00 0.00 0.00 91 1006.0
20170920084019 57 69 2.0 2.0 0.00 0.00 0.00 91 1006.0
20170920084016 57 69 2.0 2.0 0.00 0.00 0.00 91 1006.0
20170920083912 57 56 1.0 3.0 0.00 0.00 0.00 91 1006.0
20170920083716 57 56 1.0 3.0 0.00 0.00 0.00 91 1006.0
20170920083629 57 110 2.0 3.0 0.00 0.00 0.00 92 1006.1
20170920083414 57 110 2.0 3.0 0.00 0.00 0.00 92 1006.1
20170920083257 57 94 1.0 4.0 0.00 0.00 0.00 91 1006.0
20170920083113 57 94 1.0 4.0 0.00 0.00 0.00 91 1006.0
20170920083008 57 85 3.0 4.0 0.00 0.00 0.00 91 1006.0
20170920082812 57 85 3.0 4.0 0.00 0.00 0.00 91 1006.0
20170920082709 57 81 1.0 2.0 0.00 0.00 0.00 91 1006.1
20170920082511 57 81 1.0 2.0 0.00 0.00 0.00 91 1006.1
20170920082407 57 90 2.0 3.0 0.00 0.00 0.00 91 1005.9
20170920082211 57 90 2.0 3.0 0.00 0.00 0.00 91 1005.9
20170920082051 57 87 2.0 3.0 0.00 0.00 0.00 91 1006.0
20170920081908 57 87 2.0 3.0 0.00 0.00 0.00 91 1006.0
20170920081609 57 90 3.0 3.0 0.00 0.00 0.00 91 1006.0
20170920081506 57 132 1.0 3.0 0.00 0.00 0.00 91 1006.0
20170920081307 57 132 1.0 3.0 0.00 0.00 0.00 91 1006.0
20170920081005 57 92 2.0 3.0 0.00 0.00 0.00 91 1006.0
20170920080823 57 135 1.0 1.0 0.00 0.00 0.00 91 1006.0
20170920080705 57 135 1.0 1.0 0.00 0.00 0.00 91 1006.0
20170920080635 57 90 0.0 2.0 0.00 0.00 0.00 91 1006.0
20170920080404 57 90 0.0 2.0 0.00 0.00 0.00 91 1006.0
20170920080241 57 90 1.0 2.0 0.00 0.00 0.00 91 1006.1
20170920080103 57 90 1.0 2.0 0.00 0.00 0.00 91 1006.1
20170920075949 58 90 1.0 2.0 0.00 0.00 0.00 91 1006.1
20170920075802 58 90 1.0 2.0 0.00 0.00 0.00 91 1006.1
20170920075631 58 135 1.0 3.0 0.00 0.00 0.00 91 1006.1
20170920075501 58 135 1.0 3.0 0.00 0.00 0.00 91 1006.1
20170920075331 58 90 1.0 3.0 0.00 0.00 0.00 91 1006.0
20170920075158 58 90 1.0 3.0 0.00 0.00 0.00 91 1006.0
20170920075049 58 90 1.0 3.0 0.00 0.00 0.00 92 1005.9
20170920075007 58 90 1.0 3.0 0.00 0.00 0.00 92 1005.9
20170920074859 58 90 1.0 3.0 0.00 0.00 0.00 92 1005.9
20170920074805 58 94 2.0 3.0 0.00 0.00 0.00 92 1006.1
20170920074558 58 94 2.0 3.0 0.00 0.00 0.00 92 1006.1
20170920074256 57 90 3.0 3.0 0.00 0.00 0.00 91 1005.9
20170920074155 57 92 3.0 3.0 0.00 0.00 0.00 92 1006.0
20170920073955 57 92 3.0 3.0 0.00 0.00 0.00 92 1006.0
20170920073825 57 90 2.0 3.0 0.00 0.00 0.00 91 1006.0
20170920073654 57 90 2.0 3.0 0.00 0.00 0.00 91 1006.0
20170920073504 57 90 3.0 3.0 0.00 0.00 0.00 91 1006.0
20170920073353 57 90 3.0 3.0 0.00 0.00 0.00 91 1006.0
20170920073305 57 121 1.0 2.0 0.00 0.00 0.00 92 1006.0
20170920073052 57 121 1.0 2.0 0.00 0.00 0.00 92 1006.0
20170920072950 57 90 2.0 2.0 0.00 0.00 0.00 91 1006.0
20170920072751 57 90 2.0 2.0 0.00 0.00 0.00 91 1006.0
20170920072053 57 90 1.0 1.0 0.00 0.00 0.00 91 1006.1
20170920071848 57 90 1.0 1.0 0.00 0.00 0.00 91 1006.1
20170920071738 57 90 1.0 2.0 0.00 0.00 0.00 91 1006.1
20170920071547 57 90 1.0 2.0 0.00 0.00 0.00 91 1006.1
20170920071448 57 135 1.0 2.0 0.00 0.00 0.00 91 1006.1
20170920071245 57 135 1.0 2.0 0.00 0.00 0.00 91 1006.1
20170920071128 57 29 1.0 1.0 0.00 0.00 0.00 90 1006.1
20170920070944 57 29 1.0 1.0 0.00 0.00 0.00 90 1006.1
20170920070806 57 90 1.0 1.0 0.00 0.00 0.00 90 1006.2
20170920070643 57 90 1.0 1.0 0.00 0.00 0.00 90 1006.2
20170920070540 57 0 0.0 1.0 0.00 0.00 0.00 90 1006.2
20170920070342 57 0 0.0 1.0 0.00 0.00 0.00 90 1006.2
20170920070332 57 0 0.0 1.0 0.00 0.00 0.00 90 1006.1
20170920070041 57 0 0.0 1.0 0.00 0.00 0.00 90 1006.1
20170920070001 57 0 0.0 2.0 0.00 0.00 0.00 90 1006.3
20170920065740 57 0 0.0 2.0 0.00 0.00 0.00 90 1006.3
20170920065612 57 45 1.0 2.0 0.00 0.00 0.00 90 1006.2
20170920065437 57 45 1.0 2.0 0.00 0.00 0.00 90 1006.2
20170920065346 57 45 1.0 2.0 0.00 0.00 0.00 90 1006.3
20170920065138 57 45 1.0 2.0 0.00 0.00 0.00 90 1006.3
20170920064535 57 67 1.0 2.0 0.00 0.00 0.00 88 1006.3
20170920064417 57 135 0.0 1.0 0.00 0.00 0.00 88 1006.4
20170920064234 57 135 0.0 1.0 0.00 0.00 0.00 88 1006.4
20170920064118 57 135 1.0 1.0 0.00 0.00 0.00 88 1006.4
20170920063932 57 135 1.0 1.0 0.00 0.00 0.00 88 1006.4
20170920063854 57 180 1.0 1.0 0.00 0.00 0.00 88 1006.4